This is the latest recevied weather packets stored in our database for station/object KF0JHJ. If no packets are shown the sender has not sent any weather packets the latest 10 day(s).
| Time | Temp. | Humidity | Pressure | Rain* | Wind** | Luminosity | Snow |
|---|---|---|---|---|---|---|---|
| 1777650400 | 8.89° C | 47% | 1017 hPa | - | - | 220 W/m² | - |
| 1777650097 | 8.89° C | 47% | 1016.8 hPa | - | - | 423 W/m² | - |
| 1777649794 | 9.44° C | 50% | 1017 hPa | - | - | 351 W/m² | - |
| 1777649491 | 8.89° C | 49% | 1016.9 hPa | - | - | 219 W/m² | - |
| 1777649187 | 8.89° C | 49% | 1017 hPa | - | - | 209 W/m² | - |
| 1777648884 | 8.89° C | 48% | 1016.9 hPa | - | - | 243 W/m² | - |
| 1777648278 | 8.33° C | 49% | 1016.8 hPa | - | - | 201 W/m² | - |
| 1777647974 | 8.33° C | 48% | 1016.8 hPa | - | - | 186 W/m² | - |
| 1777647671 | 8.89° C | 52% | 1016.8 hPa | - | - | 188 W/m² | - |
| 1777647366 | 8.89° C | 52% | 1016.7 hPa | - | - | 176 W/m² | - |
| 1777647065 | 8.33° C | 49% | 1016.7 hPa | - | - | 166 W/m² | - |
| 1777646761 | 8.89° C | 52% | 1016.6 hPa | - | - | 169 W/m² | - |
| 1777646461 | 7.78° C | 52% | 1016.7 hPa | - | - | 180 W/m² | - |
| 1777646158 | 7.78° C | 52% | 1016.5 hPa | - | - | 159 W/m² | - |
| 1777645855 | 7.78° C | 53% | 1016.8 hPa | - | - | 146 W/m² | - |
| 1777645552 | 7.22° C | 54% | 1016.8 hPa | - | - | 144 W/m² | - |
| 1777645248 | 7.22° C | 56% | 1016.5 hPa | - | - | 154 W/m² | - |
| 1777644944 | 6.67° C | 58% | 1016.7 hPa | - | - | 142 W/m² | - |
| 1777644642 | 6.67° C | 56% | 1016.8 hPa | - | - | 133 W/m² | - |
| 1777644338 | 7.22° C | 55% | 1016.6 hPa | - | - | 126 W/m² | - |
| 1777644034 | 6.67° C | 57% | 1016.6 hPa | - | - | 346 W/m² | - |
| 1777643731 | 6.67° C | 57% | 1016.8 hPa | - | - | 127 W/m² | - |
| 1777643428 | 6.67° C | 57% | 1016.6 hPa | - | - | 132 W/m² | - |
| 1777643125 | 7.22° C | 63% | 1016.7 hPa | - | - | 108 W/m² | - |
| 1777642821 | 6.67° C | 61% | 1016.6 hPa | - | - | 103 W/m² | - |
* Rain since midnight (hover to see other rain measurements)
** Current wind speed in m/s (hover to see current wind gust speed)